Location: ????
(55.8544°N, 39.3494°E)
Time: 21:26:04
(UTC+00:00)

Daily predictions for brighter satellites

Satellite Brightness Start Highest point End
(mag) Time Altitude Azimuth Time Altitude Azimuth Time Altitude Azimuth
USA 215 3.4 13:51:16 10° ENE 13:57:50 75° SSE 14:04:23 10° WSW
ACS3 Solar Sail 2.8 13:55:31 10° ESE 14:00:34 25° NE 14:05:35 10° N
Cosmos 2369 Rocket 3.8 13:56:52 10° NNW 14:00:38 18° N 14:04:23 10° NE
Cosmos 1633 Rocket 3.1 13:56:37 10° NNW 14:01:03 86° WSW 14:05:27 10° S
Cosmos 1515 Rocket 4.4 13:58:17 10° SSE 14:02:00 29° E 14:05:46 10° NNE
SJ-12 3.7 13:59:38 10° SSE 14:03:30 82° ENE 14:07:24 10° NNW
USA 306 3.9 14:05:28 10° SSE 14:06:12 11° SE 14:07:01 10° ESE
ASTEX 1 3.5 14:02:04 10° SSE 14:06:46 51° ENE 14:11:29 10° N
Cosmos 1634 Rocket 4.5 14:01:56 10° N 14:07:52 39° ENE 14:13:44 10° SE
SL-19 R/B 4.4 14:04:20 10° SSE 14:10:22 73° ENE 14:16:07 10° NNW
IRS-P3 4.3 14:08:25 10° SSE 14:13:45 81° WSW 14:19:07 10° NNW
Cosmos 2322 Rocket 2.4 14:10:47 10° SSW 14:16:15 57° ESE 14:21:46 10° NE
Helios 1A Rocket 4.4 14:13:18 10° N 14:16:31 30° WNW 14:19:45 10° SW
Cosmos 1607 4.1 14:10:50 10° SW 14:17:11 72° SE 14:23:29 10° NE
ATLAS 2AS CENTAUR R/B 3.2 14:10:33 10° WNW 14:17:15 45° N 14:23:44 10° ENE
Meteor 1-28 Rocket 4.4 14:14:19 10° N 14:17:35 38° WNW 14:20:51 10° SW
RESURS DK-1 3.6 14:17:18 10° NNW 14:20:33 23° NNE 14:23:47 10° E
SL-16 R/B 2.2 14:16:40 10° SSW 14:22:20 88° SE 14:28:04 10° NE
Cosmos 1733 Rocket 4.3 14:19:08 10° NNE 14:22:27 21° ENE 14:25:46 10° ESE
Cosmos 2084 3.7 14:18:30 10° SSW 14:22:34 52° SE 14:26:07 12° ENE
Cosmos 2360 Rocket 2.4 14:17:26 10° S 14:22:55 54° ESE 14:28:25 10° NE
ARGOS Delta rocket 3.9 14:18:41 10° SE 14:23:16 52° ENE 14:27:40 10° N
Meteor 1-15 Rocket 4.3 14:18:59 10° N 14:24:51 64° ENE 14:30:34 10° SSE
Cosmos 332 Rocket 4.2 14:20:46 10° NNW 14:25:33 68° WSW 14:30:15 10° SSE
YAOGAN 1 3.7 14:24:53 10° ESE 14:28:12 22° ENE 14:31:32 10° N
Cosmos 1953 3.5 14:26:59 10° NNE 14:29:42 19° ENE 14:32:24 10° ESE
CZ-2D R/B 3.6 14:26:18 10° SSE 14:30:35 85° WSW 14:34:52 10° NNW
Resurs 01 Rocket 3.6 14:32:48 10° NE 14:32:48 10° NE 14:33:07 10° NE
AQUARIUS 4.1 14:28:31 10° SSE 14:32:54 66° ENE 14:37:20 10° N
USA 81 4.4 14:28:41 10° SSE 14:33:37 43° E 14:38:35 10° NNE
Cosmos 1464 Rocket 4.4 14:28:42 10° NNW 14:35:05 71° W 14:41:24 10° S
Cosmos 2292 Rocket 4.4 14:28:21 10° S 14:35:14 85° E 14:40:38 10° NNE
Cosmos 1354 Rocket 3.9 14:31:20 10° NNW 14:36:34 68° ENE 14:41:46 10° SE
Cosmos 2034 Rocket 4.0 14:31:19 10° NNW 14:37:31 89° E 14:43:41 10° S
Cosmos 990 Rocket 4.2 14:32:47 10° NNW 14:37:50 47° NE 14:42:53 10° SE
UNK 4.2 14:33:24 10° N 14:37:57 61° WNW 14:42:25 10° SSW
Tsikada Rocket 4.2 14:33:25 10° SSE 14:39:14 47° E 14:45:06 10° NNE
DNEPR-1 R/B 4.2 14:33:57 10° NW 14:39:18 49° NNE 14:43:41 11° ESE
SMAP 3.2 14:35:31 10° SSE 14:40:11 80° WSW 14:44:53 10° NNW
SJ-7 4.1 14:37:22 10° SSE 14:41:08 71° ENE 14:44:58 10° NNW
Cosmos 2237 Rocket 4.1 14:42:21 10° ESE 14:42:55 10° E 14:42:55 10° E
BlueWalker 3 2.6 14:40:03 10° SW 14:43:30 41° SSE 14:46:10 15° E
Cosmos 2278 Rocket 2.3 14:40:16 10° NNW 14:45:51 53° NE 14:51:23 10° ESE
NOSS 3-3 (A) 4.0 14:40:26 10° WSW 14:46:06 78° NW 14:51:58 15° NE
CZ-4B R/B 4.4 14:42:56 10° SE 14:46:06 29° ENE 14:49:14 10° N
ARIANE 5 R/B 4.1 14:41:22 10° SSW 14:46:15 40° W 14:51:10 10° NNW
IGS 5A 3.3 14:45:25 10° SSE 14:49:26 77° ENE 14:53:28 10° NNW
Cosmos 1937 Rocket 4.4 14:45:19 10° NNW 14:49:40 27° NE 14:52:40 16° E
Cosmos 1777 Rocket 4.1 14:46:55 10° NNW 14:52:09 80° WSW 14:57:20 10° SSE
NOAA 6 4.3 14:48:18 10° SE 14:53:06 44° ENE 14:57:58 10° N
Meteor 2-10 Rocket 4.2 14:47:32 10° NNW 14:53:10 66° W 14:58:54 10° S
Cosmos 1503 Rocket 4.2 14:48:48 10° NNW 14:53:59 75° WSW 14:59:08 10° SSE
CZ-2C R/B 3.6 14:54:47 22° NE 14:54:47 22° NE 14:57:14 10° N
Cosmos 1455 1.8 14:51:54 10° N 14:55:05 54° ENE 14:58:15 10° SSE
Cosmos 724 4.4 14:49:56 10° SW 14:55:49 79° NW 15:00:50 16° NE
Cosmos 1943 Rocket 2.4 14:50:21 10° NNW 14:55:54 50° NE 15:01:23 10° ESE
In-Cosmos 22 4.3 14:54:11 10° SSW 14:59:54 87° WNW 15:05:44 10° NNE
Cosmos 2219 Rocket 2.3 14:55:58 10° SSW 15:01:25 58° ESE 15:05:51 16° NE
Meteor 1-13 Rocket 4.3 14:56:02 10° S 15:01:55 79° ESE 15:07:54 10° NNE
SPOT 1/Viking Rocket 4.1 14:58:00 10° ESE 15:02:37 34° ENE 15:07:15 10° N
Cosmos 1933 Rocket 4.0 14:59:05 10° NNW 15:03:27 65° W 15:07:49 10° S
NOSS 8 (A) 4.1 15:00:45 10° NW 15:03:33 52° NNE 15:04:44 29° E
Meteor 1-23 Rocket 4.3 14:58:56 10° S 15:04:23 55° E 15:09:50 10° NNE
Cosmos 2322 4.3 14:59:44 10° S 15:04:54 37° ESE 15:08:11 20° NE
Cosmos 1300 4.2 15:02:14 10° NNW 15:05:19 33° W 15:08:22 10° SSW
Cosmos 1869 Rocket 3.5 15:01:15 10° NNW 15:05:41 90° ENE 15:10:07 10° S
ARIANE 6 FM1 Upper Stage 3.8 15:03:40 10° WNW 15:07:47 46° SW 15:11:56 10° SSE
Cosmos 292 Rocket 4.1 15:03:41 10° NNW 15:08:26 68° WSW 15:13:09 10° SSE
Cosmos 1697 Rocket 4.5 15:07:04 10° WNW 15:11:14 20° NNW 15:15:04 11° NNE
Cosmos 1992 Rocket 4.4 15:06:30 10° SW 15:11:40 64° WNW 15:16:40 11° NNE
CZ-4 R/B 4.2 15:08:18 10° SSE 15:12:18 78° ENE 15:16:21 10° NNW
SL-14 R/B 3.1 15:09:12 10° S 15:12:58 89° E 15:16:46 10° NNE
Cosmos 2344 4.0 15:07:00 10° S 15:13:43 37° ESE 15:17:36 22° ENE
ATLAS CENTAUR R/B 3.3 15:11:24 10° WNW 15:14:59 30° SW 15:18:35 10° S
Cosmos 2333 4.1 15:09:43 10° SSW 15:15:20 86° ESE 15:19:51 17° NE
SL-16 R/B 3.9 15:11:20 10° N 15:16:58 37° NW 15:22:36 10° WSW
ADEOS 4.4 15:15:19 23° E 15:17:06 29° NE 15:21:32 10° N
Cosmos 1461 4.2 15:14:14 10° WNW 15:17:26 26° NNW 15:19:10 19° NNE
NOSS 3 (A) 4.4 15:17:34 10° WNW 15:19:52 67° SW 15:21:07 28° SE
Cosmos 1758 4.4 15:18:06 10° NNW 15:21:47 45° W 15:25:28 10° SSW
Cosmos 1707 Rocket 4.2 15:18:20 10° SSE 15:22:17 32° E 15:22:49 31° ENE
Cosmos 1980 Rocket 3.9 15:18:40 10° WNW 15:23:14 24° NNW 15:27:20 12° NNE
Lacrosse 5 3.5 15:20:27 10° WNW 15:25:01 34° SW 15:29:35 10° SSE
Cosmos 1818 4.0 15:20:08 10° NW 15:25:26 46° NNE 15:27:44 29° E
Cosmos 2279 Rocket 3.9 15:19:56 10° N 15:26:11 80° ENE 15:32:23 10° SSE
Meteor 1-31 Rocket 2.4 15:22:50 10° SSE 15:26:24 71° ENE 15:29:58 10° NNW
CZ-4 R/B 3.7 15:29:17 11° NNE 15:29:17 11° NNE 15:29:34 10° N
COSMO-SKYMED 1 2.6 15:25:12 21° NNE 15:27:58 53° E 15:32:14 10° S
Cosmos 2084 Rocket 4.2 15:25:52 10° WNW 15:29:51 50° SW 15:33:45 10° SSE
Lacrosse 5 rocket 4.3 15:28:05 10° W 15:30:28 15° SW 15:32:52 10° SSW
Cosmos 1898 Rocket 3.6 15:28:29 10° NNW 15:33:41 56° NE 15:37:21 19° SE
Cosmos 2333 Rocket 2.6 15:29:55 10° SW 15:35:31 60° NW 15:39:46 18° NNE
COSMOS 2428 2.9 15:31:08 10° S 15:36:35 49° ESE 15:38:54 31° ENE
USA 306 2.8 15:34:38 10° WSW 15:36:15 35° SSW 15:36:15 35° SSW
Cosmos 1862 Rocket 4.0 15:35:10 10° SSE 15:38:58 40° ESE 15:38:58 40° ESE
Cosmos 1174 3.5 15:36:00 10° NW 15:39:21 85° SW 15:40:54 34° SE
Cosmos 1763 Rocket 3.8 15:34:58 10° S 15:39:54 44° ESE 15:41:12 37° ENE
USA 215 3.2 15:37:20 29° E 15:41:00 82° N 15:47:34 10° W
Cosmos 2228 Rocket 3.3 15:38:52 10° SSE 15:43:12 48° E 15:43:56 43° ENE
ACS3 Solar Sail 1.8 15:36:58 10° SSE 15:43:23 85° ENE 15:49:49 10° NNW
Landsat 7 4.1 15:39:28 10° S 15:44:10 68° WSW 15:48:52 10° NNW
STPSAT 2 (USA 217) 4.4 15:39:42 10° NNW 15:44:13 73° NE 15:46:24 30° SE
NOSS 3-3 (C) 4.4 15:39:22 10° W 15:45:09 56° NNW 15:48:56 27° NE
NOAA 15 4.5 15:40:53 10° SSE 15:46:08 89° E 15:51:25 10° NNW
Cosmos 2369 Rocket 2.9 15:41:26 10° NNW 15:46:26 32° NE 15:46:57 31° NE
Meteor 1-16 Rocket 4.3 15:43:01 10° NNW 15:48:23 73° W 15:53:52 10° S
YAOGAN 3 4.4 15:46:45 10° SSE 15:51:00 84° ENE 15:55:18 10° NNW
Okean 2 4.5 15:48:25 10° S 15:50:33 28° SSE 15:50:33 28° SSE
Cosmos 1656 Rocket 4.0 15:47:25 10° NNW 15:52:34 41° NE 15:53:06 39° ENE
CZ-4B DEB 4.3 15:56:56 41° ESE 15:58:19 50° ENE 16:03:37 10° N
RESURS DK-1 2.2 15:54:36 10° NW 15:58:39 89° SW 15:59:20 61° SSE
Cosmos 2297 4.2 15:54:09 10° NNW 15:59:33 39° NE 15:59:55 39° NE
Cosmos 2322 Rocket 3.2 15:55:14 10° WSW 16:00:32 41° NW 16:04:07 19° NNE
Cosmos 1733 Rocket 3.3 15:56:15 10° NNW 16:00:37 68° W 16:04:58 10° S
Cosmos 540 Rocket 3.5 15:55:55 10° S 16:00:51 51° ESE 16:01:01 51° ESE
Cosmos 2084 3.9 15:57:31 10° W 16:01:29 46° NNW 16:02:02 43° N
CBERS 1 LM4 rocket 4.4 15:59:36 17° SSE 16:03:27 71° ENE 16:08:41 10° NNW
YAOGAN 1 2.9 15:59:31 10° S 16:03:46 64° WSW 16:08:03 10° NNW
Cosmos 1953 2.7 16:01:51 10° NNW 16:05:32 57° W 16:09:10 10° S
Resurs 1-3 3.4 16:01:44 10° SSE 16:06:04 88° ENE 16:10:25 10° NNW
Cosmos 2360 Rocket 3.1 16:01:42 10° WSW 16:07:05 43° NW 16:10:30 21° NNE
SL-16 R/B 3.6 16:02:07 10° W 16:07:08 31° NNW 16:10:30 18° NNE
Meteor 1-21 4.3 16:01:56 10° SSW 16:07:32 76° WNW 16:13:13 10° NNE
Resurs 01 Rocket 3.2 16:10:14 22° N 16:10:14 22° N 16:11:57 10° N
ATLAS 2AS CENTAUR R/B 2.6 16:02:09 10° NW 16:09:05 71° NNE 16:11:18 44° ESE
SKYMED 2 4.0 16:13:45 26° N 16:16:02 61° WNW 16:20:19 10° SSW
BlueWalker 3 2.8 16:17:26 10° W 16:20:12 44° SW 16:20:12 44° SW
CSL-04 Rocket 4.3 16:27:10 38° NNE 16:27:10 38° NNE 16:30:43 10° N
Cosmos 2237 Rocket 2.7 16:20:37 10° S 16:24:47 42° SSE 16:24:47 42° SSE
DNEPR-1 R/B 4.4 16:21:45 10° NW 16:26:42 50° SW 16:27:59 38° S
CZ-2C R/B 4.3 16:28:34 27° NW 16:28:34 27° NW 16:30:28 10° NNW
Cosmos 372 Rocket 4.1 16:23:59 10° NNW 16:29:03 68° WSW 16:31:00 37° S
BREEZE-M DEB (TANK) 4.1 16:23:25 10° WSW 16:29:24 36° S 16:29:24 36° S
Cosmos 2278 Rocket 3.4 16:24:34 10° NW 16:29:52 41° WSW 16:35:08 10° S
Cosmos 1937 Rocket 3.4 16:27:00 10° NNW 16:32:09 81° WSW 16:32:49 67° S
Cosmos 858 Rocket 4.3 16:28:22 10° NNW 16:33:26 82° NNE 16:33:26 82° NNE
NOSS 0 Rocket 3.7 16:28:20 10° SSW 16:34:27 73° ESE 16:34:51 70° E
Cosmos 1428 Rocket 4.5 16:31:57 10° S 16:46:28 - NNE 16:37:13 60° SE
Cosmos 1943 Rocket 3.2 16:34:16 10° NW 16:39:39 44° WSW 16:44:54 10° S
Okean 3 4.3 16:36:20 10° SSW 16:39:54 48° W 16:39:54 48° W
SPOT 1/Viking Rocket 4.3 16:36:49 10° S 16:41:51 52° W 16:46:54 10° NNW
CZ-4B R/B 3.9 16:47:06 40° N 16:47:06 40° N 16:50:36 10° NNW
Cosmos 2219 Rocket 3.2 16:40:22 10° WSW 16:45:38 40° NW 16:47:34 31° N
CZ-4B R/B 4.4 16:49:11 37° NNW 16:49:11 37° NNW 16:52:06 10° NNW
Cosmos 2322 4.1 16:43:14 10° SW 16:48:53 59° NW 16:50:08 48° N
ADEOS 3.8 16:56:03 65° WSW 16:56:15 66° WSW 17:01:29 10° NNW
Nadezhda 4 Rocket 4.0 16:51:05 10° SSW 16:57:12 76° WNW 17:01:28 21° N
Cosmos 1818 4.1 17:03:50 10° NW 17:08:22 57° W 17:08:22 57° W
Cosmos 1980 Rocket 4.2 17:05:30 10° NW 17:09:05 18° N 17:09:05 18° N
COSMOS 2428 3.5 17:15:26 10° WSW 17:20:55 47° NW 17:20:55 47° NW
Cosmos 2333 Rocket 3.9 17:16:24 10° WNW 17:20:56 24° NNW 17:21:47 23° N
USA 215 3.3 17:24:40 76° W 17:24:40 76° W 17:30:40 10° WNW
Cosmos 2344 3.4 17:20:08 10° WSW 17:27:27 76° NNW 17:27:37 76° NNW
ACS3 Solar Sail 3.9 17:22:37 10° SW 17:27:43 25° W 17:32:52 10° NNW
Cosmos 2369 Rocket 3.4 17:25:25 10° NW 17:28:43 37° NW 17:28:43 37° NW
Resurs 01 Rocket 4.5 17:47:40 13° NW 17:47:40 13° NW 17:48:12 10° NNW
Cosmos 2322 Rocket 4.2 17:42:04 10° WNW 17:45:55 20° NNW 17:45:55 20° NNW
Cosmos 2360 Rocket 4.2 17:48:25 10° WNW 17:52:16 20° NNW 17:52:16 20° NNW
SL-16 R/B 4.4 17:49:13 10° NW 17:52:20 18° NNW 17:52:20 18° NNW
ATLAS 2AS CENTAUR R/B 3.6 17:53:21 10° NW 17:58:45 42° WSW 17:58:45 42° WSW
Cosmos 2237 Rocket 4.3 18:04:47 10° WSW 18:06:39 21° WSW 18:06:39 21° WSW
